sat.trackr.live / text

‹ back to catalog

HERMES-3

NORAD 63835 · 2025-052BR

PAYLOAD ACTIVE UNKNOWN

§ Identity

Operator
Country
IT
Launch date
2025-03-15
Launch site
AFWTR
Launch vehicle
Mass (kg)
RCS (m²)

External: N2YO · Heavens-Above · Gunter

§ Orbital elements

Epoch: 2026-05-24T23:37:58.859328Z

Period
93.93 min
Inclination
97.3894°
Eccentricity
0.0005171
Mean motion
15.32998344 rev/d
Perigee alt
463.3 km
Apogee alt
470.4 km
Semi-major
6,845.0 km
B*
6.1784e-4
RAAN
40.4681°
Arg perigee
185.8648°
Mean anomaly
174.2534°
Rev number
6,650

§ Raw data

HERMES-31 63835U 25052BR  26144.98470902  .00019651  00000+0  61784-3 0  99952 63835  97.3894  40.4681 0005171 185.8648 174.2534 15.32998344 66505

JSON: /api/v1/satellites/63835 · /tle

For live sub-satellite position, see the globe view (requires WebGL).

§ Visibility from observer

Set your observer location to see the next 7 days of passes ≥ 10°. The values pass through the URL so the page stays shareable.

No JS? Fill the form by hand. The geolocation button needs JavaScript.

§ Radio — SatNOGS DB

ModeDescriptionDownlinkUplink
GFSK Mode U - Transmitter 401.500 MHz

1 transmitter · refreshed weekly from db.satnogs.org